This demonstration page uses our WeatherBlox Daily Observations layout. Learn more.

Left ArrowRight Arrow

Hourly Observations for February 19, 2016

Temp ( °F °C ) Dew Point ( °F °C ) Humidity (%) Winds ( mph kmh ) Pressure ( in mb ) Visibility ( mi km ) Precip ( " mm )
12:53 am 00:53 Cloudy 53 11.7 43 6.1 69 69 S 16 26 29.96 1015 10 16 0.00 0.00
1:53 am 01:53 Mostly Cloudy 51 10.6 43 6.1 74 74 S 12 19 29.95 1014 10 16 0.00 0.00
2:53 am 02:53 Mostly Cloudy 51 10.6 43 6.1 74 74 S 13 20 29.95 1014 10 16 0.00 0.00
3:53 am 03:53 Mostly Cloudy 51 10.6 42 5.6 71 71 SSE 14 22 29.94 1014 10 16 0.00 0.00
4:53 am 04:53 Clear 51 10.6 43 6.1 74 74 SSE 22 35 29.94 1014 10 16 0.00 0.00
5:53 am 05:53 Cloudy 51 10.6 43 6.1 74 74 S 21 33 29.93 1014 10 16 0.00 0.00
6:53 am 06:53 Cloudy 51 10.6 43 6.1 74 74 S 28 44 29.89 1012 10 16 0.00 0.00
7:53 am 07:53 Cloudy 52 11.1 43 6.1 72 72 S 30 48 29.89 1012 10 16 0.00 0.00
8:53 am 08:53 Cloudy 53 11.7 43 6.1 69 69 S 30 48 29.89 1012 10 16 0.00 0.00
9:53 am 09:53 Cloudy with Light Rain 52 11.1 44 6.7 75 75 SSW 23 37 29.95 1014 8 13 0.00 0.03
10:01 am 10:01 Cloudy with Light Rain 51 10.6 44 6.7 77 77 SSW 18 30 29.97 1015 7 11 0.00 0.03
10:53 am 10:53 Cloudy with Light Rain 50 10 45 7.2 83 83 SW 14 22 30.02 1017 8 13 0.06 1.52
11:53 am 11:53 Cloudy with Light Rain 50 10 46 7.8 86 86 SSW 9 15 30.03 1017 4 6 0.28 7.11
12:20 pm 12:20 Cloudy 52 11 46 8 82 82 SW 8 13 30.03 1017 10 16 0.00 0.00
12:31 pm 12:31 Cloudy 53 11.7 47 8.3 80 80 SW 9 15 30.06 1018 10 16 0.00 0.03
12:53 pm 12:53 Cloudy 53 11.7 47 8.3 80 80 SSW 15 24 30.05 1018 10 16 0.00 0.03
1:32 pm 13:32 Cloudy 54 12 46 8 77 77 S 16 26 30.06 1018 10 16 0.00 0.00
1:53 pm 13:53 Cloudy 55 12.8 48 8.9 77 77 S 18 30 30.04 1017 10 16 0.00 0.00
2:53 pm 14:53 Mostly Cloudy 55 12.8 47 8.3 74 74 S 12 19 30.05 1018 10 16 0.00 0.00
3:12 pm 15:12 Cloudy 54 12 46 8 77 77 S 12 19 30.06 1018 10 16 0.00 0.00
3:53 pm 15:53 Mostly Cloudy 54 12.2 48 8.9 80 80 S 13 20 30.06 1018 10 16 0.00 0.00
4:53 pm 16:53 Cloudy with Light Rain 52 11.1 45 7.2 77 77 SSE 21 33 30.09 1019 7 11 0.01 0.25
5:53 pm 17:53 Mostly Cloudy 49 9.4 44 6.7 83 83 SE 10 17 30.11 1020 10 16 0.02 0.51
6:53 pm 18:53 Cloudy 50 10 42 5.6 74 74 SSE 10 17 30.14 1021 10 16 0.01 0.25
7:53 pm 19:53 Cloudy 49 9.4 42 5.6 77 77 Calm 30.17 1022 10 16 0.00 0.03
8:53 pm 20:53 Cloudy 48 8.9 43 6.1 83 83 Calm 30.20 1023 10 16 0.00 0.00
9:53 pm 21:53 Clear 47 8.3 42 5.6 83 83 NE 3 6 30.22 1023 10 16 0.00 0.00
10:53 pm 22:53 Mostly Cloudy 45 7.2 41 5 86 86 N 3 6 30.22 1024 10 16 0.00 0.00
11:53 pm 23:53 Clear 44 6.7 40 4.4 85 85 NW 6 9 30.24 1024 10 16 0.00 0.00

Powered by AerisWeather